When you browse on this site, cookies collect data to enhance your experience and personalize the content and advertising you see.
Visit our Privacy Policy to learn more. By continuing to use the site, you agree to this use of cookies and data.
  • In Austria
  • List of Countries
  • For 7 days
  • Water Temperature
  • Satellite Maps
  • Weather Map
  • News
  • Weather Widgets
  • user-avatar
    Login

    Hourly Weather Córdoba

    Today, 16 February, Saturday

    Time Temperature Precipitation Wind Pressure Humidity
    00:00 +21°C° 0 mm 1 mps 725 mmHg 70%
    01:00 +21°C° 0 mm 1 mps 725 mmHg 70%
    02:00 +20°C° 0 mm 2 mps 725 mmHg 71%
    03:00 +20°C° 0 mm 1 mps 725 mmHg 71%
    04:00 +20°C° 0 mm 1 mps 725 mmHg 70%
    05:00 +20°C° 0 mm 1 mps 724 mmHg 70%
    06:00 +22°C° 0 mm 1 mps 725 mmHg 63%
    07:00 +23°C° 0 mm 1 mps 725 mmHg 57%
    08:00 +25°C° 0 mm 1 mps 725 mmHg 50%
    09:00 +27°C° 0 mm 2 mps 725 mmHg 45%
    10:00 +29°C° 0 mm 2 mps 725 mmHg 39%
    11:00 +31°C° 0 mm 3 mps 725 mmHg 34%
    12:00 +33°C° 0 mm 3 mps 725 mmHg 31%
    13:00 +34°C° 0 mm 3 mps 724 mmHg 28%
    14:00 +35°C° 0 mm 3 mps 724 mmHg 25%
    15:00 +35°C° 0 mm 3 mps 723 mmHg 26%
    16:00 +34°C° 0 mm 4 mps 723 mmHg 28%
    17:00 +34°C° 0 mm 4 mps 722 mmHg 29%
    18:00 +30°C° 0 mm 3 mps 722 mmHg 36%
    19:00 +28°C° 0 mm 3 mps 722 mmHg 42%
    20:00 +25°C° 0 mm 2 mps 722 mmHg 49%
    21:00 +24°C° 0 mm 2 mps 723 mmHg 51%
    22:00 +24°C° 0 mm 2 mps 723 mmHg 53%
    23:00 +23°C° 0 mm 2 mps 724 mmHg 55%

    Tomorrow, 17 February, Sunday

    Time Temperature Precipitation Wind Pressure Humidity
    00:00 +21°C° 0 mm 2 mps 723 mmHg 55%
    01:00 +21°C° 0 mm 2 mps 723 mmHg 56%
    02:00 +21°C° 0 mm 2 mps 723 mmHg 57%
    03:00 +21°C° 0 mm 1 mps 723 mmHg 60%
    04:00 +21°C° 0 mm 1 mps 723 mmHg 63%
    05:00 +21°C° 0 mm 1 mps 723 mmHg 66%
    06:00 +23°C° 0 mm 2 mps 723 mmHg 61%
    07:00 +24°C° 0 mm 2 mps 723 mmHg 57%
    08:00 +26°C° 0 mm 2 mps 723 mmHg 53%
    09:00 +28°C° 0 mm 2 mps 723 mmHg 46%
    10:00 +30°C° 0 mm 3 mps 723 mmHg 39%
    11:00 +33°C° 0 mm 3 mps 723 mmHg 33%
    12:00 +34°C° 0 mm 4 mps 723 mmHg 30%
    13:00 +36°C° 0 mm 4 mps 722 mmHg 27%
    14:00 +37°C° 0 mm 4 mps 721 mmHg 24%
    15:00 +36°C° 0 mm 4 mps 721 mmHg 26%
    16:00 +36°C° 0 mm 5 mps 720 mmHg 27%
    17:00 +36°C° 0 mm 5 mps 720 mmHg 29%
    18:00 +33°C° 0 mm 4 mps 720 mmHg 37%
    19:00 +30°C° 0 mm 4 mps 720 mmHg 45%
    20:00 +27°C° 0 mm 3 mps 720 mmHg 53%
    21:00 +26°C° 0 mm 3 mps 720 mmHg 57%
    22:00 +26°C° 0 mm 3 mps 721 mmHg 61%
    23:00 +25°C° 0 mm 2 mps 721 mmHg 65%

    Day after tomorrow, 18 February, Monday

    Time Temperature Precipitation Wind Pressure Humidity
    00:00 +24°C° 0 mm 2 mps 721 mmHg 68%
    01:00 +24°C° 0 mm 2 mps 721 mmHg 71%
    02:00 +23°C° 0 mm 2 mps 720 mmHg 74%
    03:00 +23°C° 0 mm 2 mps 720 mmHg 75%
    04:00 +23°C° 0 mm 2 mps 720 mmHg 77%
    05:00 +22°C° 0 mm 1 mps 719 mmHg 79%
    06:00 +24°C° 0 mm 2 mps 720 mmHg 72%
    07:00 +26°C° 0 mm 2 mps 720 mmHg 65%
    08:00 +28°C° 0 mm 2 mps 721 mmHg 58%
    09:00 +30°C° 0 mm 3 mps 721 mmHg 51%
    10:00 +33°C° 0 mm 3 mps 721 mmHg 44%
    11:00 +35°C° 0 mm 3 mps 721 mmHg 36%
    12:00 +36°C° 0 mm 3 mps 720 mmHg 33%
    13:00 +37°C° 0 mm 3 mps 720 mmHg 29%
    14:00 +38°C° 0 mm 3 mps 719 mmHg 26%
    15:00 +38°C° 0 mm 3 mps 719 mmHg 27%
    16:00 +38°C° 0 mm 3 mps 719 mmHg 28%
    17:00 +37°C° 0 mm 2 mps 718 mmHg 29%
    18:00 +35°C° 0.2 mm 2 mps 719 mmHg 37%
    19:00 +31°C° 0.2 mm 1 mps 719 mmHg 44%
    20:00 +28°C° 0.2 mm 1 mps 719 mmHg 52%
    21:00 +27°C° 0 mm 1 mps 720 mmHg 54%
    22:00 +27°C° 0 mm 2 mps 720 mmHg 56%
    23:00 +26°C° 0 mm 2 mps 721 mmHg 59%

    19 February, Tuesday

    Time Temperature Precipitation Wind Pressure Humidity
    00:00 +26°C° 0 mm 2 mps 720 mmHg 60%
    01:00 +26°C° 0 mm 2 mps 720 mmHg 60%
    02:00 +25°C° 0 mm 2 mps 720 mmHg 61%
    03:00 +25°C° 0 mm 2 mps 720 mmHg 61%
    04:00 +25°C° 0 mm 2 mps 719 mmHg 61%
    05:00 +25°C° 0 mm 2 mps 719 mmHg 62%
    06:00 +27°C° 0 mm 2 mps 720 mmHg 57%
    07:00 +28°C° 0 mm 2 mps 721 mmHg 52%
    08:00 +30°C° 0 mm 1 mps 721 mmHg 47%
    09:00 +33°C° 0 mm 1 mps 721 mmHg 40%
    10:00 +35°C° 0 mm 1 mps 721 mmHg 32%
    11:00 +37°C° 0 mm 1 mps 722 mmHg 25%
    12:00 +39°C° 0 mm 2 mps 721 mmHg 24%
    13:00 +40°C° 0 mm 3 mps 720 mmHg 23%
    14:00 +40°C° 0 mm 3 mps 720 mmHg 21%
    15:00 +41°C° 0 mm 4 mps 719 mmHg 22%
    16:00 +41°C° 0 mm 4 mps 719 mmHg 23%
    17:00 +40°C° 0 mm 4 mps 718 mmHg 24%
    18:00 +37°C° 0 mm 4 mps 718 mmHg 29%
    19:00 +34°C° 0 mm 4 mps 718 mmHg 35%
    20:00 +30°C° 0 mm 3 mps 718 mmHg 40%
    21:00 +29°C° 0 mm 3 mps 719 mmHg 42%
    22:00 +28°C° 0 mm 3 mps 719 mmHg 44%
    23:00 +27°C° 0 mm 2 mps 720 mmHg 45%

    20 February, Wednesday

    Time Temperature Precipitation Wind Pressure Humidity
    00:00 +27°C° 0 mm 2 mps 720 mmHg 48%
    01:00 +26°C° 0 mm 2 mps 719 mmHg 50%
    02:00 +26°C° 0 mm 2 mps 719 mmHg 52%
    03:00 +26°C° 0 mm 2 mps 719 mmHg 54%
    04:00 +25°C° 0 mm 2 mps 719 mmHg 56%
    05:00 +25°C° 0 mm 2 mps 719 mmHg 57%
    06:00 +27°C° 0 mm 2 mps 719 mmHg 53%
    07:00 +28°C° 0 mm 3 mps 720 mmHg 49%
    08:00 +30°C° 0 mm 3 mps 720 mmHg 45%
    09:00 +33°C° 0 mm 4 mps 720 mmHg 40%
    10:00 +36°C° 0 mm 4 mps 720 mmHg 35%
    11:00 +39°C° 0 mm 5 mps 720 mmHg 29%
    12:00 +40°C° 0 mm 5 mps 720 mmHg 27%
    13:00 +41°C° 0 mm 5 mps 719 mmHg 24%
    14:00 +42°C° 0 mm 6 mps 718 mmHg 21%
    15:00 +42°C° 0 mm 6 mps 718 mmHg 21%
    16:00 +41°C° 0 mm 6 mps 717 mmHg 22%
    17:00 +41°C° 0 mm 6 mps 717 mmHg 22%
    18:00 +37°C° 0 mm 5 mps 717 mmHg 27%
    19:00 +35°C° 0 mm 5 mps 717 mmHg 33%
    20:00 +32°C° 0 mm 4 mps 717 mmHg 39%
    21:00 +30°C° 0 mm 3 mps 718 mmHg 42%
    22:00 +29°C° 0 mm 3 mps 718 mmHg 46%
    23:00 +28°C° 0 mm 2 mps 718 mmHg 49%

    21 February, Thursday

    Time Temperature Precipitation Wind Pressure Humidity
    00:00 +28°C° 0 mm 2 mps 718 mmHg 51%
    01:00 +27°C° 0 mm 2 mps 718 mmHg 52%
    02:00 +27°C° 0 mm 1 mps 718 mmHg 54%
    03:00 +27°C° 0 mm 2 mps 718 mmHg 54%
    04:00 +26°C° 0 mm 2 mps 718 mmHg 55%
    05:00 +26°C° 0 mm 2 mps 719 mmHg 56%
    06:00 +28°C° 0 mm 2 mps 719 mmHg 51%
    07:00 +30°C° 0 mm 2 mps 720 mmHg 45%
    08:00 +32°C° 0 mm 2 mps 721 mmHg 40%
    09:00 +35°C° 0 mm 2 mps 721 mmHg 38%
    10:00 +36°C° 0 mm 3 mps 721 mmHg 35%
    11:00 +38°C° 0 mm 3 mps 722 mmHg 32%
    12:00 +37°C° 0 mm 3 mps 721 mmHg 34%
    13:00 +37°C° 0 mm 3 mps 721 mmHg 35%
    14:00 +37°C° 0 mm 3 mps 721 mmHg 36%
    15:00 +36°C° 0 mm 3 mps 720 mmHg 39%
    16:00 +35°C° 0 mm 3 mps 720 mmHg 42%
    17:00 +34°C° 0 mm 3 mps 720 mmHg 44%
    18:00 +33°C° 0 mm 3 mps 720 mmHg 47%
    19:00 +31°C° 0 mm 2 mps 721 mmHg 49%
    20:00 +31°C° 0 mm 2 mps 721 mmHg 51%
    21:00 +30°C° 0.3 mm 3 mps 722 mmHg 58%
    22:00 +28°C° 0.3 mm 3 mps 722 mmHg 65%
    23:00 +27°C° 0.3 mm 3 mps 723 mmHg 72%
    Show more